Project,Study,Ord_Occ,Event_Num,Cast_ID,Date_Time_UTC,Date_Time_PST,Lat_Dec,Lon_Dec,Sta_ID,Line,Sta,Depth,Pressure,PrQ,Temp1,Temp1Q,Temp2,Temp2Q,TempAve,Salt1,Salt1Q,Salt1_Corr,Salt2,Salt2Q,Salt2_Corr,SaltAve_Corr,Ox1,Ox1Q,Ox1_CruiseCorr,Ox1_StaCorr,Ox2,Ox2Q,Ox2_CruiseCorr,Ox2_StaCorr,OxAve_StaCorr,Ox1uM,Ox1uM_CruiseCorr,Ox1uM_StaCorr,Ox2uM,Ox2uM_CruiseCorr,Ox2uM_StaCorr,OxAveuM_StaCorr,FluorV,FluorQ,EstChl_CruiseCorr,EstChl_StaCorr,ISUSV,ISUSQ,EstNO3_CruiseCorr,EstNO3_StaCorr,SigThetaTS1,SigThetaTS1Q,SigThetaTS2,SigThetaTS2Q,BAT,XMiss,TransQ,pH,pHQ,SPAR,SPARQ,PAR,PARQ,PoT1,PoT2,DynHt,SVA,OxSat1,OxSat2,BTL_Depth,BTL_Temp,SaltB,OxB,OxBuM,Chl-a,Phaeo,NO3,NO2,NH4,PO4,SIL
CalCOFI,2105SH,030,,2105_030d,10-May-2021 09:07:55,10-May-2021 01:07:55,33.15345,-120.00906,086.7 055.0,086.7,055.0,3.000,3.021,,13.6555,,13.6561,,13.6558,33.5174,,33.5186,33.5172,,33.5191,33.5189,5.7335,,6.0622,6.2726,5.8100,,6.0774,6.2688,6.2707,249.787,263.6261,266.0165,253.119,274.8992,265.9393,265.9779,0.1246,,0.6902,0.6945,2.5905,,4.6793,,25.1126,,25.1123,,,,,,,,,,,13.6550,13.6557,0.0018,284.140,97.136,98.433,3,13.621,33.5179,6.039,263.09,0.524,0.163,3.49,0.096,0.21,0.48,2.44
CalCOFI,2105SH,030,,2105_030d,10-May-2021 09:08:03,10-May-2021 01:08:03,33.15340,-120.00909,086.7 055.0,086.7,055.0,4.000,4.028,,13.6561,,13.6570,,13.6566,33.5175,,33.5187,33.5174,,33.5193,33.5190,5.7264,,6.0548,6.2651,5.8117,,6.0792,6.2706,6.2679,249.475,263.3000,265.6935,253.194,274.5622,266.0161,265.8548,0.1316,,0.7395,0.7429,2.5902,,4.6793,,25.1126,,25.1123,,,,,,,,,,,13.6556,13.6564,0.0058,284.173,97.016,98.464,,,,,,,,,,,,
CalCOFI,2105SH,030,,2105_030d,10-May-2021 09:08:06,10-May-2021 01:08:06,33.15339,-120.00910,086.7 055.0,086.7,055.0,5.000,5.036,,13.6559,,13.6569,,13.6564,33.5176,,33.5188,33.5173,,33.5192,33.5190,5.7351,,6.0639,6.2743,5.8089,,6.0763,6.2677,6.2710,249.854,263.6962,266.0859,253.072,274.9715,265.8912,265.9886,0.1220,,0.6719,0.6765,2.5902,,4.6793,,25.1127,,25.1122,,,,,,,,,,,13.6552,13.6562,0.0087,284.189,97.164,98.417,,,,,,,,,,,,
CalCOFI,2105SH,030,,2105_030d,10-May-2021 09:08:08,10-May-2021 01:08:08,33.15337,-120.00910,086.7 055.0,086.7,055.0,6.000,6.043,,13.6567,,13.6577,,13.6572,33.5176,,33.5188,33.5174,,33.5193,33.5191,5.7061,,6.0335,6.2439,5.8123,,6.0798,6.2712,6.2576,248.590,262.3748,264.7771,253.218,273.6064,266.0407,265.4089,0.1185,,0.6471,0.6523,2.5901,,4.6793,,25.1125,,25.1122,,,,,,,,,,,13.6558,13.6569,0.0115,284.231,96.673,98.475,,,,,,,,,,,,
CalCOFI,2105SH,030,,2105_030d,10-May-2021 09:08:10,10-May-2021 01:08:10,33.15336,-120.00912,086.7 055.0,086.7,055.0,7.000,7.050,,13.6580,,13.6591,,13.6586,33.5175,,33.5187,33.5174,,33.5193,33.5190,5.7091,,6.0367,6.2470,5.8055,,6.0727,6.2642,6.2556,248.724,262.5149,264.9158,252.922,273.7511,265.7375,265.3267,0.1164,,0.6322,0.6378,2.5899,,4.6793,,25.1122,,25.1120,,,,,,,,,,,13.6571,13.6581,0.0144,284.287,96.728,98.363,,,,,,,,,,,,
CalCOFI,2105SH,030,,2105_030d,10-May-2021 09:08:12,10-May-2021 01:08:12,33.15334,-120.00912,086.7 055.0,086.7,055.0,8.000,8.057,,13.6560,,13.6573,,13.6567,33.5175,,33.5187,33.5171,,33.5190,33.5189,5.7104,,6.0380,6.2484,5.8055,,6.0727,6.2642,6.2563,248.780,262.5734,264.9738,252.923,273.8116,265.7386,265.3562,0.1155,,0.6258,0.6315,2.5896,,4.6793,,25.1127,,25.1121,,,,,,,,,,,13.6548,13.6562,0.0173,284.269,96.746,98.360,,,,,,,,,,,,
CalCOFI,2105SH,030,,2105_030d,10-May-2021 09:08:14,10-May-2021 01:08:14,33.15334,-120.00912,086.7 055.0,086.7,055.0,9.000,9.064,,13.6574,,13.6594,,13.6584,33.5174,,33.5186,33.5172,,33.5191,33.5189,5.7287,,6.0572,6.2676,5.8074,,6.0747,6.2662,6.2669,249.578,263.4076,265.8001,253.003,274.6734,265.8205,265.8103,0.1149,,0.6216,0.6274,2.5892,,4.6793,,25.1123,,25.1118,,,,,,,,,,,13.6561,13.6582,0.0201,284.335,97.059,98.395,,,,,,,,,,,,
CalCOFI,2105SH,030,,2105_030d,10-May-2021 09:08:16,10-May-2021 01:08:16,33.15334,-120.00912,086.7 055.0,086.7,055.0,10.000,10.071,,13.6567,,13.6556,,13.6562,33.5178,,33.5190,33.5177,,33.5196,33.5193,5.7466,,6.0759,6.2863,5.8096,,6.0770,6.2684,6.2774,250.354,264.2189,266.6036,253.100,275.5115,265.9199,266.2618,0.1139,,0.6145,0.6205,2.5887,,4.6793,,25.1128,,25.1129,,,,,,,,,,,13.6553,13.6542,0.0230,284.320,97.360,98.425,,,,,,,,,,,,
CalCOFI,2105SH,030,,2105_030d,10-May-2021 09:08:17,10-May-2021 01:08:17,33.15333,-120.00914,086.7 055.0,086.7,055.0,11.000,11.079,,13.6546,,13.6551,,13.6549,33.5177,,33.5189,33.5175,,33.5194,33.5192,5.7233,,6.0515,6.2619,5.8048,,6.0720,6.2635,6.2627,249.343,263.1620,265.5568,252.893,274.4196,265.7079,265.6324,0.1199,,0.6570,0.6620,2.5881,,4.6793,,25.1132,,25.1130,,,,,,,,,,,13.6530,13.6536,0.0259,284.306,96.962,98.344,11,13.468,,,259.88,0.713,0.263,5.50,0.120,0.30,0.65,3.94
CalCOFI,2105SH,030,,2105_030d,10-May-2021 09:08:19,10-May-2021 01:08:19,33.15332,-120.00914,086.7 055.0,086.7,055.0,12.000,12.086,,13.6500,,13.6517,,13.6509,33.5186,,33.5198,33.5177,,33.5196,33.5197,5.7340,,6.0627,6.2731,5.8019,,6.0690,6.2605,6.2668,249.806,263.6460,266.0362,252.763,274.9197,265.5747,265.8055,0.1177,,0.6414,0.6467,2.5873,,4.6793,,25.1149,,25.1138,,,,,,,,,,,13.6484,13.6500,0.0287,284.178,97.134,98.286,,,,,,,,,,,,
CalCOFI,2105SH,030,,2105_030d,10-May-2021 09:08:21,10-May-2021 01:08:21,33.15331,-120.00914,086.7 055.0,086.7,055.0,13.000,13.093,,13.6133,,13.6194,,13.6164,33.5251,,33.5263,33.5226,,33.5245,33.5254,5.7202,,6.0483,6.2587,5.7892,,6.0559,6.2473,6.2530,249.204,263.0167,265.4128,252.207,274.2695,265.0053,265.2091,0.1167,,0.6343,0.6398,2.5860,,4.6793,,25.1274,,25.1243,,,,,,,,,,,13.6115,13.6176,0.0316,283.015,96.832,98.010,,,,,,,,,,,,
CalCOFI,2105SH,030,,2105_030d,10-May-2021 09:08:23,10-May-2021 01:08:23,33.15330,-120.00916,086.7 055.0,086.7,055.0,14.000,14.100,,13.5291,,13.5312,,13.5302,33.5407,,33.5419,33.5359,,33.5378,33.5399,5.7152,,6.0431,6.2534,5.7986,,6.0656,6.2570,6.2552,248.978,262.7804,265.1788,252.612,274.0254,265.4201,265.2995,0.1159,,0.6287,0.6343,2.5841,,4.6793,,25.1567,,25.1525,,,,,,,,,,,13.5271,13.5292,0.0344,280.253,96.590,98.001,,,,,,,,,,,,
CalCOFI,2105SH,030,,2105_030d,10-May-2021 09:08:25,10-May-2021 01:08:25,33.15328,-120.00916,086.7 055.0,086.7,055.0,15.000,15.107,,13.3872,,13.3981,,13.3927,33.5696,,33.5708,33.5634,,33.5653,33.5681,5.7227,,6.0509,6.2613,5.7936,,6.0604,6.2519,6.2566,249.294,263.1107,265.5060,252.382,274.3667,265.1845,265.3453,0.1194,,0.6535,0.6585,2.5820,,4.6793,,25.2078,,25.2008,,,,,,,,,,,13.3852,13.3960,0.0372,275.416,96.455,97.667,,,,,,,,,,,,
CalCOFI,2105SH,030,,2105_030d,10-May-2021 09:08:26,10-May-2021 01:08:26,33.15328,-120.00916,086.7 055.0,086.7,055.0,16.000,16.114,,13.3625,,13.3736,,13.3681,33.5778,,33.5790,33.5703,,33.5722,33.5756,5.7020,,6.0293,6.2396,5.8007,,6.0678,6.2592,6.2494,248.387,262.1626,264.5669,252.690,273.3872,265.5000,265.0335,0.1235,,0.6825,0.6869,2.5804,,4.6793,,25.2192,,25.2111,,,,,,,,,,,13.3603,13.3714,0.0400,274.362,96.061,97.742,,,,,,,,,,,,
CalCOFI,2105SH,030,,2105_030d,10-May-2021 09:08:27,10-May-2021 01:08:27,33.15328,-120.00916,086.7 055.0,086.7,055.0,17.000,17.122,,13.2523,,13.2572,,13.2548,33.6090,,33.6102,33.6006,,33.6025,33.6064,5.7138,,6.0416,6.2519,5.8110,,6.0784,6.2699,6.2609,248.892,262.6905,265.0898,253.126,273.9326,265.9465,265.5182,0.1225,,0.6754,0.6800,2.5786,,4.6793,,25.2655,,25.2580,,,,,,,,,,,13.2500,13.2549,0.0427,269.981,96.062,97.700,,,,,,,,,,,,
CalCOFI,2105SH,030,,2105_030d,10-May-2021 09:08:30,10-May-2021 01:08:30,33.15327,-120.00916,086.7 055.0,086.7,055.0,18.000,18.129,,13.1412,,13.1402,,13.1407,33.6259,,33.6271,33.6214,,33.6233,33.6252,5.7331,,6.0618,6.2722,5.7952,,6.0621,6.2535,6.2629,249.724,263.5603,265.9513,252.429,274.8311,265.2327,265.5920,0.1371,,0.7781,0.7810,2.5738,,4.6793,,25.3008,,25.2975,,,,,,,,,,,13.1388,13.1377,0.0454,266.643,96.177,97.214,,,,,,,,,,,,
CalCOFI,2105SH,030,,2105_030d,10-May-2021 09:08:32,10-May-2021 01:08:32,33.15326,-120.00917,086.7 055.0,086.7,055.0,19.000,19.136,,13.0841,,13.0844,,13.0843,33.6258,,33.6270,33.6204,,33.6223,33.6247,5.6986,,6.0257,6.2360,5.7786,,6.0449,6.2364,6.2362,248.217,261.9849,264.3908,251.701,273.2036,264.4871,264.4390,0.1198,,0.6563,0.6613,2.5679,,4.6793,,25.3122,,25.3079,,,,,,,,,,,13.0815,13.0818,0.0481,265.586,95.485,96.822,,,,,,,,,,,,
CalCOFI,2105SH,030,,2105_030d,10-May-2021 09:08:33,10-May-2021 01:08:33,33.15326,-120.00918,086.7 055.0,086.7,055.0,20.000,20.143,,13.0337,,13.0338,,13.0338,33.6262,,33.6274,33.6206,,33.6225,33.6250,5.6820,,6.0083,6.2186,5.7655,,6.0313,6.2228,6.2207,247.491,261.2259,263.6391,251.130,272.4195,263.9023,263.7707,0.1216,,0.6690,0.6737,2.5639,,4.6793,,25.3226,,25.3182,,,,,,,,,,,13.0309,13.0311,0.0508,264.626,95.108,96.503,,,,,,,,,,,,
CalCOFI,2105SH,030,,2105_030d,10-May-2021 09:08:35,10-May-2021 01:08:35,33.15324,-120.00918,086.7 055.0,086.7,055.0,21.000,21.151,,13.0003,,13.0005,,13.0004,33.6259,,33.6271,33.6219,,33.6238,33.6255,5.6606,,5.9860,6.1962,5.7354,,6.0001,6.1916,6.1939,246.558,260.2505,262.6730,249.815,271.4118,262.5555,262.6143,0.1276,,0.7114,0.7153,2.5586,,4.6793,,25.3290,,25.3258,,,,,,,,,,,12.9974,12.9977,0.0534,264.043,94.685,95.933,,,,,,,,,,,,
CalCOFI,2105SH,030,,2105_030d,10-May-2021 09:08:37,10-May-2021 01:08:37,33.15324,-120.00918,086.7 055.0,086.7,055.0,22.000,22.158,,12.9203,,12.9174,,12.9189,33.6300,,33.6312,33.6227,,33.6246,33.6279,5.6436,,5.9682,6.1784,5.7079,,5.9716,6.1632,6.1708,245.811,259.4696,261.8995,248.613,270.6051,261.3245,261.6120,0.1224,,0.6747,0.6793,2.5506,,4.6793,,25.3480,,25.3429,,,,,,,,,,,12.9173,12.9145,0.0561,262.259,94.246,95.310,,,,,,,,,,,,
CalCOFI,2105SH,030,,2105_030d,10-May-2021 09:08:38,10-May-2021 01:08:38,33.15324,-120.00918,086.7 055.0,086.7,055.0,23.000,23.165,,12.7897,,12.7875,,12.7886,33.6374,,33.6386,33.6299,,33.6318,33.6352,5.6373,,5.9616,6.1718,5.6832,,5.9461,6.1376,6.1547,245.530,259.1759,261.6086,247.531,270.3016,260.2163,260.9125,0.1210,,0.6648,0.6696,2.5404,,4.6793,,25.3795,,25.3741,,,,,,,,,,,12.7866,12.7845,0.0587,259.286,93.892,94.648,,,,,,,,,,,,
CalCOFI,2105SH,030,,2105_030d,10-May-2021 09:08:41,10-May-2021 01:08:41,33.15323,-120.00920,086.7 055.0,086.7,055.0,24.000,24.172,,12.6630,,12.6632,,12.6631,33.6444,,33.6456,33.6356,,33.6375,33.6416,5.5296,,5.8490,6.0591,5.5780,,5.8371,6.0288,6.0440,240.833,254.2656,256.7450,242.943,265.2288,255.5174,256.1312,0.1246,,0.6902,0.6945,2.5224,,4.6793,,25.4097,,25.4029,,,,,,,,,,,12.6598,12.6600,0.0613,256.434,91.861,92.661,,,,,,,,,,,,
CalCOFI,2105SH,030,,2105_030d,10-May-2021 09:08:43,10-May-2021 01:08:43,33.15322,-120.00920,086.7 055.0,086.7,055.0,25.000,25.179,,12.4414,,12.4390,,12.4402,33.6607,,33.6619,33.6468,,33.6487,33.6553,5.4562,,5.7722,5.9822,5.5121,,5.7688,5.9606,5.9714,237.622,250.9088,253.4202,240.060,261.7609,252.5648,252.9925,0.1161,,0.6301,0.6357,2.5059,,4.6793,,25.4654,,25.4551,,,,,,,,,,,12.4381,12.4357,0.0639,251.156,90.233,91.146,,,,,,,,,,,,
CalCOFI,2105SH,030,,2105_030d,10-May-2021 09:08:44,10-May-2021 01:08:44,33.15322,-120.00920,086.7 055.0,086.7,055.0,26.000,26.187,,12.2588,,12.2527,,12.2558,33.6773,,33.6785,33.6600,,33.6619,33.6702,5.4332,,5.7481,5.9581,5.5032,,5.7596,5.9514,5.9548,236.611,249.8519,252.3733,239.660,260.6690,252.1551,252.2642,0.1191,,0.6514,0.6564,2.4947,,4.6793,,25.5133,,25.5010,,,,,,,,,,,12.2554,12.2493,0.0664,246.615,89.522,90.653,,,,,,,,,,,,
CalCOFI,2105SH,030,,2105_030d,10-May-2021 09:08:45,10-May-2021 01:08:45,33.15320,-120.00921,086.7 055.0,086.7,055.0,27.000,27.194,,12.1056,,12.1027,,12.1042,33.6823,,33.6835,33.6709,,33.6728,33.6782,5.4145,,5.7286,5.9385,5.5029,,5.7593,5.9510,5.9448,235.787,248.9905,251.5201,239.641,259.7791,252.1357,251.8279,0.1159,,0.6287,0.6343,2.4811,,4.6793,,25.5464,,25.5381,,,,,,,,,,,12.1022,12.0992,0.0688,243.488,88.930,90.371,,,,,,,,,,,,
CalCOFI,2105SH,030,,2105_030d,10-May-2021 09:08:47,10-May-2021 01:08:47,33.15320,-120.00922,086.7 055.0,086.7,055.0,28.000,28.201,,12.0293,,12.0285,,12.0289,33.6833,,33.6845,33.6754,,33.6773,33.6809,5.4204,,5.7348,5.9447,5.4908,,5.7468,5.9385,5.9416,236.040,249.2550,251.7821,239.110,260.0524,251.5918,251.6870,0.1136,,0.6123,0.6184,2.4624,,4.6793,,25.5616,,25.5557,,,,,,,,,,,12.0256,12.0249,0.0713,242.062,88.885,90.035,,,,,,,,,,,,
CalCOFI,2105SH,030,,2105_030d,10-May-2021 09:08:49,10-May-2021 01:08:49,33.15318,-120.00922,086.7 055.0,086.7,055.0,29.000,29.208,,11.9771,,11.9776,,11.9774,33.6858,,33.6870,33.6790,,33.6809,33.6840,5.3959,,5.7091,5.9190,5.4774,,5.7329,5.9247,5.9219,234.973,248.1396,250.6772,238.524,258.9000,250.9917,250.8345,0.1143,,0.6173,0.6232,2.4432,,4.6793,,25.5735,,25.5681,,,,,,,,,,,11.9734,11.9739,0.0737,240.960,88.389,89.721,,,,,,,,,,,,
CalCOFI,2105SH,030,,2105_030d,10-May-2021 09:08:51,10-May-2021 01:08:51,33.15318,-120.00922,086.7 055.0,086.7,055.0,30.000,30.216,,11.9472,,11.9470,,11.9471,33.6872,,33.6884,33.6814,,33.6833,33.6859,5.3782,,5.6906,5.9005,5.4578,,5.7126,5.9044,5.9025,234.198,247.3294,249.8747,237.666,258.0630,250.1129,249.9938,0.1176,,0.6407,0.6461,2.4278,,4.6793,,25.5802,,25.5758,,,,,,,,,,,11.9434,11.9431,0.0761,240.346,88.043,89.343,,,,,,,,,,,,
CalCOFI,2105SH,030,,2105_030d,10-May-2021 09:08:53,10-May-2021 01:08:53,33.15318,-120.00922,086.7 055.0,086.7,055.0,31.000,31.223,,11.9162,,11.9164,,11.9163,33.6892,,33.6904,33.6846,,33.6865,33.6885,5.3663,,5.6782,5.8880,5.4369,,5.6909,5.8827,5.8854,233.681,246.7889,249.3394,236.754,257.5046,249.1789,249.2592,0.1126,,0.6052,0.6115,2.4131,,4.6793,,25.5876,,25.5840,,,,,,,,,,,11.9122,11.9124,0.0786,239.664,87.794,88.946,31,11.902,,,244.12,0.702,0.323,11.45,0.191,0.63,1.04,8.96
CalCOFI,2105SH,030,,2105_030d,10-May-2021 09:08:55,10-May-2021 01:08:55,33.15316,-120.00922,086.7 055.0,086.7,055.0,32.000,32.230,,11.8977,,11.8971,,11.8974,33.6912,,33.6924,33.6872,,33.6891,33.6908,5.3405,,5.6512,5.8610,5.4088,,5.6618,5.8537,5.8574,232.557,245.6139,248.1756,235.528,256.2907,247.9233,248.0495,0.1113,,0.5960,0.6025,2.4004,,4.6793,,25.5926,,25.5897,,,,,,,,,,,11.8936,11.8930,0.0810,239.210,87.339,88.451,,,,,,,,,,,,
CalCOFI,2105SH,030,,2105_030d,10-May-2021 09:08:57,10-May-2021 01:08:57,33.15316,-120.00922,086.7 055.0,086.7,055.0,33.000,33.237,,11.8830,,11.8833,,11.8832,33.6925,,33.6937,33.6893,,33.6912,33.6925,5.3354,,5.6459,5.8557,5.3846,,5.6368,5.8286,5.8422,232.335,245.3818,247.9457,234.475,256.0509,246.8448,247.3953,0.1105,,0.5903,0.5969,2.3918,,4.6793,,25.5965,,25.5939,,,,,,,,,,,11.8788,11.8791,0.0834,238.871,87.229,88.032,,,,,,,,,,,,
CalCOFI,2105SH,030,,2105_030d,10-May-2021 09:08:58,10-May-2021 01:08:58,33.15314,-120.00924,086.7 055.0,086.7,055.0,34.000,34.245,,11.8682,,11.8682,,11.8682,33.6943,,33.6955,33.6913,,33.6932,33.6944,5.2853,,5.5935,5.8032,5.3439,,5.5946,5.7865,5.7949,230.150,243.0976,245.6832,232.699,253.6911,245.0259,245.3546,0.1074,,0.5682,0.5755,2.3824,,4.6793,,25.6007,,25.5984,,,,,,,,,,,11.8639,11.8638,0.0858,238.494,86.384,87.339,,,,,,,,,,,,
CalCOFI,2105SH,030,,2105_030d,10-May-2021 09:09:01,10-May-2021 01:09:01,33.15314,-120.00924,086.7 055.0,086.7,055.0,35.000,35.252,,11.8578,,11.8591,,11.8585,33.7017,,33.7029,33.6991,,33.7010,33.7020,5.2200,,5.5252,5.7348,5.2946,,5.5435,5.7355,5.7352,227.305,240.1234,242.7373,230.555,250.6185,242.8301,242.7837,0.1018,,0.5281,0.5367,2.3652,,4.6793,,25.6083,,25.6061,,,,,,,,,,,11.8533,11.8546,0.0882,237.791,85.302,86.522,,,,,,,,,,,,
CalCOFI,2105SH,030,,2105_030d,10-May-2021 09:09:03,10-May-2021 01:09:03,33.15312,-120.00924,086.7 055.0,086.7,055.0,36.000,36.259,,11.8538,,11.8540,,11.8539,33.7044,,33.7056,33.7029,,33.7048,33.7052,5.1783,,5.4816,5.6912,5.2300,,5.4766,5.6686,5.6799,225.488,238.2240,240.8559,227.739,248.6562,239.9461,240.4010,0.0989,,0.5073,0.5166,2.3525,,4.6793,,25.6112,,25.6100,,,,,,,,,,,11.8492,11.8495,0.0906,237.543,84.614,85.458,,,,,,,,,,,,
CalCOFI,2105SH,030,,2105_030d,10-May-2021 09:09:04,10-May-2021 01:09:04,33.15312,-120.00924,086.7 055.0,086.7,055.0,37.000,37.267,,11.8501,,11.8499,,11.8500,33.7088,,33.7100,33.7072,,33.7091,33.7096,5.1394,,5.4409,5.6504,5.2057,,5.4515,5.6435,5.6470,223.792,236.4510,239.0997,226.680,246.8245,238.8615,238.9806,0.1008,,0.5209,0.5298,2.3452,,4.6793,,25.6153,,25.6141,,,,,,,,,,,11.8453,11.8451,0.0930,237.176,83.974,85.056,,,,,,,,,,,,
CalCOFI,2105SH,030,,2105_030d,10-May-2021 09:09:06,10-May-2021 01:09:06,33.15311,-120.00925,086.7 055.0,086.7,055.0,38.000,38.274,,11.8222,,11.8228,,11.8225,33.7169,,33.7181,33.7151,,33.7170,33.7176,5.0866,,5.3857,5.5951,5.1411,,5.3846,5.5766,5.5859,221.489,234.0434,236.7151,223.863,244.3372,235.9764,236.3458,0.0989,,0.5073,0.5166,2.3304,,4.6793,,25.6269,,25.6254,,,,,,,,,,,11.8173,11.8179,0.0954,236.102,83.066,83.957,,,,,,,,,,,,
CalCOFI,2105SH,030,,2105_030d,10-May-2021 09:09:09,10-May-2021 01:09:09,33.15310,-120.00926,086.7 055.0,086.7,055.0,39.000,39.281,,11.8075,,11.8075,,11.8075,33.7282,,33.7294,33.7274,,33.7293,33.7294,4.9614,,5.2547,5.4640,5.0145,,5.2534,5.4456,5.4548,216.038,228.3449,231.0708,218.349,238.4501,230.3292,230.7000,0.0848,,0.4056,0.4191,2.3026,,4.6793,,25.6385,,25.6378,,,,,,,,,,,11.8026,11.8025,0.0977,235.027,81.004,81.870,,,,,,,,,,,,
CalCOFI,2105SH,030,,2105_030d,10-May-2021 09:09:10,10-May-2021 01:09:10,33.15310,-120.00926,086.7 055.0,086.7,055.0,40.000,40.288,,11.7893,,11.7896,,11.7895,33.7298,,33.7310,33.7273,,33.7292,33.7301,4.9198,,5.2112,5.4205,5.0029,,5.2414,5.4336,5.4271,214.226,226.4507,229.1945,217.844,236.4932,229.8120,229.5033,0.0838,,0.3983,0.4122,2.2927,,4.6793,,25.6431,,25.6411,,,,,,,,,,,11.7842,11.7845,0.1001,234.609,80.295,81.650,,,,,,,,,,,,
CalCOFI,2105SH,030,,2105_030d,10-May-2021 09:09:12,10-May-2021 01:09:12,33.15309,-120.00927,086.7 055.0,086.7,055.0,41.000,41.296,,11.7664,,11.7666,,11.7665,33.7293,,33.7305,33.7272,,33.7291,33.7298,4.9053,,5.1961,5.4053,4.9840,,5.2218,5.4141,5.4097,213.591,225.7868,228.5370,217.020,235.8074,228.9681,228.7526,0.0817,,0.3831,0.3976,2.2782,,4.6793,,25.6470,,25.6453,,,,,,,,,,,11.7612,11.7614,0.1025,234.258,80.018,81.302,,,,,,,,,,,,
CalCOFI,2105SH,030,,2105_030d,10-May-2021 09:09:14,10-May-2021 01:09:14,33.15308,-120.00928,086.7 055.0,086.7,055.0,42.000,42.303,,11.7468,,11.7461,,11.7465,33.7290,,33.7302,33.7270,,33.7289,33.7296,4.8794,,5.1690,5.3781,4.9361,,5.1722,5.3645,5.3713,212.463,224.6076,227.3690,214.931,234.5891,226.8286,227.0988,0.0812,,0.3795,0.3942,2.2552,,4.6793,,25.6505,,25.6490,,,,,,,,,,,11.7415,11.7408,0.1048,233.956,79.563,80.485,,,,,,,,,,,,
CalCOFI,2105SH,030,,2105_030d,10-May-2021 09:09:16,10-May-2021 01:09:16,33.15307,-120.00928,086.7 055.0,086.7,055.0,43.000,43.310,,11.7165,,11.7165,,11.7165,33.7290,,33.7302,33.7261,,33.7280,33.7291,4.8634,,5.1522,5.3614,4.9201,,5.1556,5.3479,5.3547,211.766,223.8790,226.6473,214.235,233.8364,226.1158,226.3816,0.0784,,0.3591,0.3748,2.2429,,4.6793,,25.6561,,25.6539,,,,,,,,,,,11.7111,11.7110,0.1072,233.442,79.251,80.174,,,,,,,,,,,,
CalCOFI,2105SH,030,,2105_030d,10-May-2021 09:09:18,10-May-2021 01:09:18,33.15306,-120.00928,086.7 055.0,086.7,055.0,44.000,44.318,,11.6855,,11.6834,,11.6845,33.7273,,33.7285,33.7251,,33.7270,33.7278,4.8476,,5.1357,5.3448,4.9153,,5.1507,5.3430,5.3439,211.080,223.1618,225.9370,214.026,233.0955,225.9017,225.9194,0.0773,,0.3511,0.3672,2.2277,,4.6793,,25.6606,,25.6593,,,,,,,,,,,11.6800,11.6779,0.1095,233.040,78.942,80.040,,,,,,,,,,,,
CalCOFI,2105SH,030,,2105_030d,10-May-2021 09:09:20,10-May-2021 01:09:20,33.15304,-120.00928,086.7 055.0,086.7,055.0,45.000,45.325,,11.6681,,11.6684,,11.6683,33.7262,,33.7274,33.7247,,33.7266,33.7270,4.8349,,5.1224,5.3315,4.8985,,5.1333,5.3256,5.3286,210.525,222.5816,225.3623,213.295,232.4961,225.1531,225.2577,0.0761,,0.3424,0.3589,2.2117,,4.6793,,25.6630,,25.6617,,,,,,,,,,,11.6624,11.6627,0.1119,232.833,78.706,79.741,,,,,,,,,,,,
CalCOFI,2105SH,030,,2105_030d,10-May-2021 09:09:22,10-May-2021 01:09:22,33.15304,-120.00928,086.7 055.0,086.7,055.0,46.000,46.332,,11.6541,,11.6509,,11.6525,33.7259,,33.7271,33.7240,,33.7259,33.7265,4.8308,,5.1182,5.3273,4.8793,,5.1134,5.3057,5.3165,210.344,222.3924,225.1749,212.456,232.3006,224.2938,224.7344,0.0770,,0.3489,0.3651,2.1991,,4.6793,,25.6654,,25.6645,,,,,,,,,,,11.6483,11.6451,0.1142,232.634,78.615,79.398,,,,,,,,,,,,
CalCOFI,2105SH,030,,2105_030d,10-May-2021 09:09:24,10-May-2021 01:09:24,33.15303,-120.00928,086.7 055.0,086.7,055.0,47.000,47.340,,11.6436,,11.6452,,11.6444,33.7253,,33.7265,33.7242,,33.7261,33.7263,4.7960,,5.0818,5.2908,4.8484,,5.0814,5.2737,5.2823,208.830,220.8097,223.6072,211.109,230.6655,222.9143,223.2608,0.0770,,0.3489,0.3651,2.1907,,4.6793,,25.6669,,25.6657,,,,,,,,,,,11.6377,11.6393,0.1165,232.513,78.031,78.885,,,,,,,,,,,,
CalCOFI,2105SH,030,,2105_030d,10-May-2021 09:09:25,10-May-2021 01:09:25,33.15302,-120.00930,086.7 055.0,086.7,055.0,48.000,48.347,,11.6145,,11.6169,,11.6157,33.7259,,33.7271,33.7230,,33.7249,33.7260,4.7679,,5.0524,5.2614,4.8064,,5.0379,5.2303,5.2459,207.604,219.5280,222.3377,209.280,229.3414,221.0411,221.6894,0.0766,,0.3460,0.3623,2.1826,,4.6793,,25.6728,,25.6701,,,,,,,,,,,11.6085,11.6108,0.1189,231.977,77.527,78.155,,,,,,,,,,,,
CalCOFI,2105SH,030,,2105_030d,10-May-2021 09:09:27,10-May-2021 01:09:27,33.15301,-120.00930,086.7 055.0,086.7,055.0,49.000,49.354,,11.5625,,11.5601,,11.5613,33.7246,,33.7258,33.7203,,33.7222,33.7240,4.6970,,4.9782,5.1871,4.7388,,4.9678,5.1603,5.1737,204.515,216.2988,219.1392,206.338,226.0053,218.0280,218.5836,0.0741,,0.3278,0.3450,2.1716,,4.6793,,25.6814,,25.6784,,,,,,,,,,,11.5563,11.5540,0.1212,231.178,76.289,76.963,,,,,,,,,,,,
CalCOFI,2105SH,030,,2105_030d,10-May-2021 09:09:29,10-May-2021 01:09:29,33.15300,-120.00930,086.7 055.0,086.7,055.0,50.000,50.362,,11.4263,,11.4306,,11.4285,33.7196,,33.7208,33.7115,,33.7134,33.7171,4.6246,,4.9025,5.1113,4.6724,,4.8991,5.0916,5.1015,201.359,212.9995,215.8713,203.440,222.5968,215.0600,215.4657,0.0704,,0.3007,0.3194,2.1545,,4.6793,,25.7025,,25.6953,,,,,,,,,,,11.4201,11.4244,0.1235,229.183,74.895,75.671,,,,,,,,,,,,
CalCOFI,2105SH,030,,2105_030d,10-May-2021 09:09:32,10-May-2021 01:09:32,33.15299,-120.00930,086.7 055.0,086.7,055.0,51.000,51.369,,11.3125,,11.3141,,11.3133,33.7231,,33.7243,33.7176,,33.7195,33.7219,4.5851,,4.8612,5.0700,4.6424,,4.8680,5.0606,5.0653,199.636,211.1983,214.0872,202.130,220.7359,213.7183,213.9028,0.0648,,0.2597,0.2807,2.1380,,4.6793,,25.7260,,25.7215,,,,,,,,,,,11.3062,11.3077,0.1258,226.963,74.078,75.003,,,,,,,,,,,,
CalCOFI,2105SH,030,,2105_030d,10-May-2021 09:09:33,10-May-2021 01:09:33,33.15298,-120.00932,086.7 055.0,086.7,055.0,52.000,52.377,,11.2651,,11.2616,,11.2634,33.7270,,33.7282,33.7225,,33.7244,33.7263,4.5771,,4.8528,5.0616,4.6379,,4.8633,5.0559,5.0588,199.285,210.8313,213.7237,201.930,220.3569,213.5135,213.6186,0.0631,,0.2472,0.2689,2.1272,,4.6793,,25.7376,,25.7348,,,,,,,,,,,11.2587,11.2552,0.1281,225.879,73.876,74.849,52,11.285,,,213.95,0.410,0.305,13.64,0.358,0.65,1.21,11.80
CalCOFI,2105SH,030,,2105_030d,10-May-2021 09:09:35,10-May-2021 01:09:35,33.15297,-120.00932,086.7 055.0,086.7,055.0,53.000,53.384,,11.2409,,11.2398,,11.2404,33.7274,,33.7286,33.7242,,33.7261,33.7274,4.5582,,4.8331,5.0418,4.6212,,4.8460,5.0386,5.0402,198.459,209.9678,212.8685,201.203,219.4648,212.7689,212.8187,0.0604,,0.2273,0.2502,2.1109,,4.6793,,25.7423,,25.7401,,,,,,,,,,,11.2344,11.2333,0.1304,225.451,73.533,74.546,,,,,,,,,,,,
CalCOFI,2105SH,030,,2105_030d,10-May-2021 09:09:37,10-May-2021 01:09:37,33.15296,-120.00932,086.7 055.0,086.7,055.0,54.000,54.391,,11.2155,,11.2149,,11.2152,33.7299,,33.7311,33.7266,,33.7285,33.7298,4.5544,,4.8291,5.0378,4.6066,,4.8309,5.0235,5.0307,198.292,209.7933,212.6955,200.568,219.2844,212.1186,212.4071,0.0604,,0.2273,0.2502,2.0983,,4.6793,,25.7489,,25.7465,,,,,,,,,,,11.2088,11.2083,0.1327,224.848,73.432,74.273,,,,,,,,,,,,
CalCOFI,2105SH,030,,2105_030d,10-May-2021 09:09:38,10-May-2021 01:09:38,33.15296,-120.00932,086.7 055.0,086.7,055.0,55.000,55.399,,11.2070,,11.2064,,11.2067,33.7299,,33.7311,33.7277,,33.7296,33.7304,4.5418,,4.8159,5.0246,4.6116,,4.8361,5.0287,5.0267,197.743,209.2193,212.1271,200.782,218.6915,212.3377,212.2324,0.0604,,0.2273,0.2502,2.0925,,4.6793,,25.7505,,25.7489,,,,,,,,,,,11.2003,11.1996,0.1349,224.719,73.216,74.339,,,,,,,,,,,,